Marshall D Hunter AP, Marshal, AK

11:18 AM AKST on November 17, 2017 (GMT -0900)
Marshall D Hunter AP, Marshal

Weather History for PADM - December, 2013

Change the Weather History Date:

Tuesday, December 17, 2013

  Actual Average (PASM) Record (PASM)
Temperature  
Mean Temperature 20 °F -  
Max Temperature 23 °F 8 °F 33 °F (2008)
Min Temperature 17 °F 0 °F -23 °F (1999)
Degree Days  
Heating Degree Days 45    
Moisture  
Dew Point 17 °F    
Average Humidity 85    
Maximum Humidity 93    
Minimum Humidity 80    
Precipitation  
Precipitation 0.00 in - - ()
Sea Level Pressure  
Sea Level Pressure 30.32 in    
Wind  
Wind Speed 13 mph (South)    
Max Wind Speed 17 mph    
Max Gust Speed 25 mph    
Visibility 9 miles    
Events Snow    
Averages and records for this station are not official NWS values.
T = Trace of Precipitation, MM = Missing Value Source: NWS Daily Summary

Daily Weather History Graph

Daily Weather History Graph

Search for Another Location

Airport or City:

Trip Planner

Search our weather history database for the weather conditions in past years. The results will help you decide how hot, cold, wet, or windy it might be!

Date:

Astronomy

Dec. 17, 2013 Rise Set
Actual Time 11:07 AM AKST 4:21 PM AKST
Civil Twilight 10:02 AM AKST 5:26 PM AKST
Nautical Twilight 9:01 AM AKST 6:27 PM AKST
Astronomical Twilight 8:06 AM AKST 7:22 PM AKST
Moon 5:38 PM AKST 10:47 AM AKST
Length of Visible Light 7h 23m
Length of Day
5h 13m
Full, 100% of the Moon is Illuminated
Dec 17
Full
Dec 25
Last Quarter
Jan 1
New
Jan 7
First Quarter
Jan 15
Full

Hourly Weather History & Observations

Time (AKST) Temp. Windchill Dew Point Humidity Pressure Visibility Wind Dir Wind Speed Gust Speed Precip Events Conditions
1:56 AM 17.1 °F 2.0 °F 13.1 °F 84% 30.35 in 10.0 mi SSW 16.1 mph - 0.00 in Snow Light Snow
2:54 AM 17.6 °F 7.3 °F 14.0 °F 86% 30.39 in 10.0 mi SSW 8.1 mph - N/A   Overcast
3:56 AM 18.1 °F 10.0 °F 15.1 °F 88% 30.35 in 10.0 mi SW 5.8 mph - 0.00 in Snow Light Snow
5:56 AM 19.4 °F 7.2 °F 15.8 °F 86% 30.36 in 10.0 mi SSW 11.5 mph - N/A   Overcast
6:03 AM 19.4 °F 6.6 °F 15.8 °F 86% 30.36 in 10.0 mi South 12.7 mph - N/A Snow Light Snow
6:56 AM 19.0 °F 5.6 °F 16.2 °F 89% 30.32 in 9.0 mi South 13.8 mph - 0.00 in Snow Light Snow
8:56 AM 20.1 °F 7.5 °F 16.2 °F 85% 30.32 in 10.0 mi South 12.7 mph - 0.00 in   Overcast
9:56 AM 20.1 °F 8.1 °F 15.1 °F 81% 30.32 in 10.0 mi SSW 11.5 mph - 0.00 in   Overcast
10:56 AM 20.1 °F 7.5 °F 15.1 °F 81% 30.32 in 10.0 mi SSW 12.7 mph - 0.00 in   Overcast
11:56 AM 20.1 °F 6.4 °F 15.1 °F 81% 30.32 in 10.0 mi South 15.0 mph - N/A   Overcast
2:56 PM 21.2 °F 8.3 °F 15.8 °F 80% 30.34 in 10.0 mi South 13.8 mph 23.0 mph N/A   Overcast
4:56 PM 22.1 °F 8.5 °F 18.1 °F 85% 30.29 in 6.0 mi South 16.1 mph 21.9 mph 0.00 in Snow Light Snow
5:55 PM 21.2 °F 8.3 °F 17.6 °F 86% 30.32 in 10.0 mi South 13.8 mph 20.7 mph N/A   Overcast
6:56 PM 23.0 °F 9.2 °F 19.0 °F 85% 30.29 in 4.0 mi South 17.3 mph 24.2 mph 0.00 in Snow Light Snow
7:38 PM 23.0 °F 9.2 °F 19.4 °F 86% 30.31 in 4.0 mi South 17.3 mph 25.3 mph 0.00 in Snow Light Snow
8:31 PM 21.2 °F 7.3 °F 17.6 °F 86% 30.31 in 10.0 mi South 16.1 mph - 0.00 in   Overcast
8:56 PM 21.2 °F 7.8 °F 17.6 °F 86% 30.30 in - South 15.0 mph - N/A Snow Light Snow
9:25 PM 21.2 °F - 19.4 °F 93% 30.29 in 10.0 mi North - - N/A   Overcast
11:55 PM 23.0 °F 10.1 °F 19.4 °F 86% 30.28 in 10.0 mi SSE 15.0 mph 19.6 mph N/A   Overcast
11:56 PM 23.0 °F 10.6 °F 19.4 °F 86% 30.28 in 10.0 mi South 13.8 mph 19.6 mph N/A   Overcast